FloripaSat 1
1 44885U 19093G   25214.82824840  .00004563  00000-0  38152-3 0  9991
2 44885  97.8145 302.5569 0010551  24.8722 335.3007 14.98959043304877
RS-44
1 44909U 19096E   25214.42074050  .00000031  00000-0  74991-4 0  9995
2 44909  82.5213 191.5071 0217608 169.3881 191.1924 12.79742277261579
UPMSat 2
1 46276U 20061E   25214.27510459  .00101622  00000-0  63463-3 0  9998
2 46276  97.2393 290.7351 0001143 176.7139 183.4135 15.76577818273901
SALSAT
1 46495U 20068K   25214.48937627  .00007579  00000-0  32130-3 0  9994
2 46495  97.8641 195.0431 0010324 344.6003  15.4917 15.23399316266731
CubeSX-Sirius-HSE
1 47951U 21022V   25157.62701764  .07883385  25648-5  89537-3 0  9993
2 47951  97.4004  72.1904 0010275 223.9924 136.0557 16.36879307233400
CubeSX-HSE
1 47952U 21022W   25157.69972699  .06655353  25454-5  93288-3 0  9992
2 47952  97.3980  72.5414 0010307 219.3637 140.6911 16.34906352233436
GRBAlpha
1 47959U 21022AD  25160.45426279  .07940347  25506-5  90589-3 0  9995
2 47959  97.3899  75.6235 0011032 227.2558 132.7812 16.36806138232695
TUBIN
1 48900U 21059X   25214.83443777  .00048632  00000-0  49464-3 0  9998
2 48900  97.6773  28.6584 0002891  42.1924 317.9556 15.65023758228513
LEDSAT
1 49069U 21073D   25214.81106486  .00089265  00000-0  78767-3 0  9997
2 49069  97.3841 298.8910 0008710 227.0784 132.9747 15.68375674219912
CUTE
1 49263U 21088D   25214.46324372  .00016888  00000-0  30941-3 0  9999
2 49263  97.4471 292.3563 0007694  51.8764 308.3179 15.49357185212762
TeikyoSat 4
1 49396U 21102B   25214.70618634  .00002213  00000-0  14827-3 0  9999
2 49396  97.4077 251.1775 0011113 313.1589  46.8709 15.07837822204702
Z-Sat
1 49399U 21102E   25214.85887287  .00004152  00000-0  22650-3 0  9997
2 49399  97.3773 254.7618 0016215 275.9193  84.0191 15.14795742205191
KOSEN 1
1 49402U 21102H   25214.69749030  .00005847  00000-0  26683-3 0  9999
2 49402  97.3675 258.4365 0014147 246.3772 113.5979 15.20901763205511
HO-113
1 50466U 21131B   25214.85779563  .00000432  00000-0  14860-3 0  9994
2 50466  98.5102 303.9461 0003651 350.4949   9.6170 14.40867214189269
Foresail-1
1 52766U 22057AL  25176.64799660  .13857605  27391-5  25307-3 0  9992
2 52766  97.5832 331.2310 0012137 233.7199 258.4922 16.46795272172486
SNUGLITE 2
1 52899U 22065F   25214.37437673  .00001112  00000-0  22471-3 0  9996
2 52899  98.1756 355.8467 0006533 311.1602  48.9035 14.63318255164356
UmKA 1 (RS40S)
1 57172U 23091G   25214.87723581  .00005228  00000-0  27596-3 0  9991
2 57172  97.5548 269.9828 0015370 142.3172 217.9140 15.15866574115708
CubeBel-2 (EU11S)
1 57175U 23091K   25214.82533902  .00008890  00000-0  41299-3 0  9999
2 57175  97.5546 271.4197 0012996 148.0101 212.1926 15.20161991115797
VERONIKA
1 58261U 23174F   25214.73644938  .00579723  14287-3  14114-2 0  9998
2 58261  97.4028 304.9484 0009168 245.0740 114.9584 15.96173606 97239
ENSO
1 58470U 23185J   25214.82592583  .00066384  00000-0  76636-3 0  9997
2 58470  97.3693 291.8920 0006363 228.7159 131.3552 15.61683075 93482
EIRSAT-1
1 58472U 23185L   25214.75842137  .00237770  00000-0  11271-2 0  9996
2 58472  97.3605 294.9484 0007046 233.2270 126.8352 15.82307256 93686
SONATE-2
1 59112U 24043Q   25214.35335950  .00017712  00000-0  48606-3 0  9993
2 59112  97.5191 346.6863 0009538 282.9448  77.0731 15.37278093 78599
MO-122
1 60209U 24125G   25214.48371565  .00017828  00000-0  48002-3 0  9997
2 60209  97.2750  65.5445 0016434 306.3261  53.6466 15.37769625 60239
GRBBeta
1 60237U 24128C   25214.49755963  .00003118  00000-0  23863-3 0  9995
2 60237  61.9902 251.5082 0055394  68.9064 291.7937 15.03010731 58304
Curium One
1 60242U 24128H   25214.57324807  .00005747  00000-0  39605-3 0  9990
2 60242  61.9798 248.7075 0055354  65.2665 295.4175 15.05760086 58364
ROBUSTA-3A
1 60243U 24128J   25214.59293352  .00004616  00000-0  32567-3 0  9997
2 60243  61.9870 249.6501 0054492  62.9409 297.7229 15.05274553 58355
CatSat
1 60246U 24125J   25214.55306943  .00015786  00000-0  50930-3 0  9998
2 60246  97.2551  64.1954 0039786 261.1937  98.4799 15.31443675 58244
HYPERVIEW-1G (RS66S)
1 61772U 24199AP  25214.86335111  .00020137  00000-0  54858-3 0  9996
2 61772  97.3464  83.6583 0012653   7.1532 352.9890 15.37438401 85292
AO-123
1 61781U 24199AY  25214.84551213  .00006564  00000-0  23504-3 0  9999
2 61781  97.3482  81.9049 0015804  12.3206 347.8417 15.28982700 85178
ZIMSAT 2
1 61783U 24199BA  25214.83651577  .00038025  00000-0  82374-3 0  9991
2 61783  97.3432  84.7131 0011445   4.0736 356.0604 15.44272776 88515
HADES-R (SO-124)
1 62690U 25009CK  25214.14868894  .00044060  00000-0  14002-2 0  9994
2 62690  97.4062 294.8597 0002339 234.7420 125.3603 15.32493419 30347
HYDRA-T
1 62692U 25009CM  25214.45021229  .00044327  00000-0  13921-2 0  9998
2 62692  97.4067 295.2193 0002320 229.9741 130.1298 15.32870978 30391
JINJUSat 1B
1 63210U 25052A   25214.27428631  .00011863  00000-0  52739-3 0  9991
2 63210  97.4344 107.7345 0005931 121.8452 238.3362 15.21647883 21413
NUSHSAT 1
1 63211U 25052B   25214.25933694  .00014133  00000-0  62128-3 0  9996
2 63211  97.4333 107.7362 0005850 125.9549 234.2230 15.21989592 21418
TEVEL2-4
1 63213U 25052D   25214.21838104  .00012600  00000-0  56003-3 0  9996
2 63213  97.4251 107.4882 0004770 134.8256 225.3368 15.21644687 21402
TEVEL2-5
1 63214U 25052E   25214.21976904  .00012476  00000-0  55503-3 0  9993
2 63214  97.4250 107.4868 0004740 134.8284 225.3338 15.21616643 21402
TEVEL2-6
1 63215U 25052F   25214.22332737  .00012695  00000-0  56533-3 0  9992
2 63215  97.4252 107.4845 0004776 134.8161 225.3464 15.21576934 21401
TEVEL2-1
1 63217U 25052H   25214.50538074  .00011627  00000-0  52159-3 0  9991
2 63217  97.4227 107.6730 0004611 146.5008 213.6520 15.21349046 21447
TEVEL2-3
1 63218U 25052J   25214.24252163  .00012927  00000-0  57946-3 0  9998
2 63218  97.4228 107.4148 0004460 147.7493 212.4017 15.21347942 21400
TEVEL2-2
1 63219U 25052K   25214.24287494  .00012975  00000-0  58174-3 0  9991
2 63219  97.4228 107.4139 0004522 146.8116 213.3404 15.21339638 21405
TEVEL2-9
1 63237U 25052AD  25214.21973704  .00011515  00000-0  53553-3 0  9999
2 63237  97.4292 107.2569 0008159 172.9557 187.1794 15.20089625 21384
TEVEL2-7
1 63238U 25052AE  25214.15856634  .00011670  00000-0  54386-3 0  9992
2 63238  97.4294 107.1892 0008214 173.5828 186.5514 15.20015272 21374
TEVEL2-8
1 63239U 25052AF  25214.22751688  .00011742  00000-0  54764-3 0  9994
2 63239  97.4293 107.2484 0008261 173.2460 186.8888 15.19985666 21382
HYDRA-W
1 63490U 25052BL  25214.17548565  .00030392  00000-0  11910-2 0  9992
2 63490  97.4241 107.8310 0011865 171.6464 188.4973 15.25658552 21424
HADES-ICM (SO-125)
1 63492U 25052BN  25214.47032368  .00025257  00000-0  10080-2 0  9997
2 63492  97.4244 108.0587 0011994 175.0259 185.1101 15.25086194 21469
